Погода в Далоа

Кот-д’Ивуар     6°45′40″N   6°24′28″W
темп.,
°C
ветер,
м/с
пор.,
м/с
влажн.,
%
обл.,
%
осадки,
мм/ч
давл.,
гПа
погр.,
м
1 марта, пн
пн100:00+24юз1691100 3.1 1010233
03:00+23юз1693100 0.0 1008269
06:00+23юз1595100 0.0 1008232
09:00+25юз148398 0.0 1010393
12:00+34зюз114596 0.0 10101372
15:00+35вюв124179 0.3 10061816
18:00+23сз128490 6.5 100787
21:00+23ю1291100 1.1 101092
2 марта, вт
вт200:00+23ю179597 1.1 1010252
03:00+23юз179932 0.0 1008349
06:00+23юз259557 0.0 1009395
09:00+25юз2487100 0.0 1011492
12:00+31зюз225797 0.0 10101026
15:00+36св143760 0.0 10072344
18:00+32ююз114741 0.0 100747
21:00+25ю298894 2.1 1010317
3 марта, ср
ср300:00+24юз289462 2.1 1010512
03:00+23юз289673 0.0 1008469
06:00+23юз179880 0.0 1010359
09:00+27зюз257671 0.0 1012660
12:00+33юз234950 0.0 10111344
15:00+35з224134 0.0 10072104
18:00+28юз267665 2.1 1008248
21:00+25ююз168831 0.2 1010185
4 марта, чт
чт400:00+25юз299060 0.2 1010452
03:00+24юз299293 0.0 1008553
06:00+23зюз299581 0.0 1009515
09:00+26юз367895 0.0 1011679
12:00+33зюз245376 0.0 10101229
15:00+35юз224175 0.0 10062141
18:00+32юз265575 0.0 1006360
21:00+25зюз2791100 9.2 1010232
5 марта, пт
пт500:00+24юз3792100 16.8 1010244
03:00+24юз2895100 0.0 1008430
06:00+23юз2996100 0.0 1008569
09:00+25зюз3787100 0.1 1011711
12:00+27зюз2573100 0.1 1010904
15:00+32юз245575 0.0 10061349
18:00+30юз116560 0.0 100729
21:00+24ююз289069 1.8 1010408